KF8LO-1 Weather Reports


time (UTC)temp
C
wind
direction
speed
KPH
gust
KPH
rain 1hr
cm
rain 24hr
cm
rain mn
cm
humidity
%
barometer
mb
20260504190208 17 288 8.0 27.4 0.00 0.00 0.00 44
20260504185708 17 309 3.2 38.6 0.00 0.00 0.00 43
20260504185208 17 222 14.5 27.4 0.00 0.00 0.00 45
20260504184708 17 309 4.8 29.0 0.00 0.00 0.00 46
20260504184208 17 313 14.5 35.4 0.00 0.00 0.00 45
20260504183708 17 319 8.0 33.8 0.00 0.00 0.00 45
20260504183208 17 299 20.9 33.8 0.00 0.00 0.00 45
20260504182708 16 302 19.3 30.6 0.00 0.00 0.00 47
20260504182208 16 232 4.8 33.8 0.00 0.00 0.00 47
20260504181708 16 293 20.9 24.1 0.00 0.00 0.00 48
20260504181208 16 285 8.0 22.5 0.00 0.00 0.00 48
20260504180708 16 300 9.7 30.6 0.00 0.00 0.00 49
20260504180208 16 319 12.9 30.6 0.00 0.00 0.00 49
20260504175708 16 296 8.0 33.8 0.00 0.00 0.00 49
20260504175208 16 299 12.9 38.6 0.00 0.00 0.00 48
20260504174708 16 267 9.7 27.4 0.00 0.00 0.00 50
20260504174208 16 281 4.8 30.6 0.00 0.00 0.00 51
20260504173708 16 293 8.0 33.8 0.00 0.00 0.00 50
20260504173208 15 288 8.0 33.8 0.00 0.00 0.00 52
20260504172708 15 268 12.9 27.4 0.00 0.00 0.00 52
20260504172209 15 278 14.5 30.6 0.00 0.00 0.00 51
20260504171708 15 274 14.5 24.1 0.00 0.00 0.00 52
20260504171208 15 289 11.3 19.3 0.00 0.00 0.00 53
20260504170708 15 309 3.2 24.1 0.00 0.00 0.00 52
20260504170208 15 209 0.0 24.1 0.00 0.00 0.00 53
20260504160209 15 285 3.2 27.4 0.00 0.00 0.00 47
20260504150709 14 310 6.4 27.4 0.00 0.00 0.00 48
20260504150209 13 288 12.9 38.6 0.00 0.00 0.00 49
20260504141209 13 302 12.9 29.0 0.00 0.00 0.00 47
20260504140709 13 306 11.3 27.4 0.00 0.00 0.00 48
20260504140209 13 215 4.8 25.7 0.00 0.00 0.00 47
20260504130709 11 244 1.6 22.5 0.00 0.00 0.00 48
20260504130209 11 271 11.3 22.5 0.00 0.00 0.00 49
20260504120209 9 295 3.2 24.1 0.00 0.00 0.00 54
20260504110709 8 312 8.0 22.5 0.00 0.00 0.00 56
20260504110210 8 270 6.4 19.3 0.00 0.00 0.00 56
20260504100210 8 268 1.6 19.3 0.00 0.00 0.00 59
20260504081710 7 267 4.8 30.6 0.00 0.00 0.00 62
20260504081210 7 254 11.3 14.5 0.00 0.00 0.00 62
20260504080710 7 300 8.0 17.7 0.00 0.00 0.00 61
20260504080210 7 312 4.8 20.9 0.00 0.00 0.00 60
20260504070210 7 296 9.7 19.3 0.00 0.00 0.00 50
20260504060210 7 265 9.7 22.5 0.00 0.00 0.00 47
20260504050711 8 296 4.8 19.3 0.00 0.00 0.00 46
20260504050211 8 315 4.8 24.1 0.00 0.00 0.00 46
20260504045711 8 299 4.8 16.1 0.00 0.00 0.00 46
20260504045211 8 267 6.4 14.5 0.00 0.00 0.00 46
20260504044711 8 257 9.7 14.5 0.00 0.00 0.00 46
20260504044211 8 246 3.2 19.3 0.00 0.00 0.00 46
20260504043711 8 240 17.7 27.4 0.00 0.00 0.00 46
20260504043211 8 299 3.2 14.5 0.00 0.00 0.00 46
20260504042711 8 306 3.2 12.9 0.00 0.00 0.00 46
20260504042211 8 255 3.2 12.9 0.00 0.00 0.00 46
20260504041711 8 340 0.0 8.0 0.00 0.00 0.00 46
20260504041211 8 286 4.8 8.0 0.00 0.00 0.00 47
20260504040711 8 248 6.4 14.5 0.00 0.00 0.00 46
20260504040211 8 292 0.0 12.9 0.00 0.00 0.00 46
20260504035711 8 322 1.6 12.9 0.00 0.00 0.00 46
20260504035211 8 270 3.2 16.1 0.00 0.00 0.00 46
20260504034711 8 291 4.8 17.7 0.00 0.00 0.00 46
20260504034211 8 299 6.4 16.1 0.00 0.00 0.00 46
20260504033711 8 247 6.4 14.5 0.00 0.00 0.00 46
20260504033211 8 316 1.6 16.1 0.00 0.00 0.00 46
20260504032711 8 320 1.6 11.3 0.00 0.00 0.00 46
20260504032211 8 305 6.4 14.5 0.00 0.00 0.00 46
20260504031711 8 270 8.0 16.1 0.00 0.00 0.00 46
20260504031211 8 298 0.0 16.1 0.00 0.00 0.00 45
20260504030711 8 286 3.2 14.5 0.00 0.00 0.00 46
20260504030211 8 291 0.0 12.9 0.00 0.00 0.00 45
20260504025711 8 257 4.8 16.1 0.00 0.00 0.00 46
20260504025211 8 271 3.2 12.9 0.00 0.00 0.00 46
20260504024711 8 292 3.2 20.9 0.00 0.00 0.00 46
20260504024211 8 288 8.0 19.3 0.00 0.00 0.00 46
20260504023711 8 261 3.2 9.7 0.00 0.00 0.00 46
20260504023211 8 300 4.8 12.9 0.00 0.00 0.00 46
20260504022711 8 7 4.8 12.9 0.00 0.00 0.00 46
20260504022211 8 320 3.2 12.9 0.00 0.00 0.00 46
20260504021711 8 260 1.6 16.1 0.00 0.00 0.00 46
20260504021211 8 295 6.4 16.1 0.00 0.00 0.00 46
20260504020711 8 285 6.4 14.5 0.00 0.00 0.00 46
20260504020211 8 303 6.4 20.9 0.00 0.00 0.00 45
20260504015711 8 274 4.8 12.9 0.00 0.00 0.00 45
20260504015213 8 299 1.6 14.5 0.00 0.00 0.00 46
20260504014711 8 286 6.4 12.9 0.00 0.00 0.00 45
20260504014211 8 296 8.0 16.1 0.00 0.00 0.00 45
20260504013711 8 257 11.3 14.5 0.00 0.00 0.00 45
20260504013211 8 291 9.7 17.7 0.00 0.00 0.00 45
20260504012711 7 285 14.5 16.1 0.00 0.00 0.00 46
20260504012211 8 253 9.7 17.7 0.00 0.00 0.00 45
20260504011711 8 310 6.4 16.1 0.00 0.00 0.00 45
20260504011211 7 326 4.8 12.9 0.00 0.00 0.00 45
20260504010711 8 306 4.8 12.9 0.00 0.00 0.00 45
20260504010211 8 322 8.0 12.9 0.00 0.00 0.00 44
20260504005711 8 291 6.4 16.1 0.00 0.00 0.00 44
20260504005211 8 206 6.4 16.1 0.00 0.00 0.00 44
20260504004711 8 344 11.3 11.3 0.00 0.00 0.00 44
20260504004211 8 288 8.0 14.5 0.00 0.00 0.00 44
20260504003711 8 285 4.8 11.3 0.00 0.00 0.00 44
20260504003211 8 285 4.8 11.3 0.00 0.00 0.00 44
20260504002711 8 296 4.8 14.5 0.00 0.00 0.00 43
20260504002211 8 322 8.0 14.5 0.00 0.00 0.00 43
20260504001711 8 262 11.3 12.9 0.00 0.00 0.00 42
20260504001212 8 289 3.2 16.1 0.00 0.00 0.00 42
20260504000712 8 296 6.4 9.7 0.00 0.00 0.00 41
20260504000212 8 322 4.8 12.9 0.00 0.00 0.00 41
20260503235712 8 344 3.2 17.7 0.00 0.00 0.00 40
20260503235212 9 298 9.7 16.1 0.00 0.00 0.00 40
20260503234712 9 265 9.7 17.7 0.00 0.00 0.00 39
20260503234212 10 274 9.7 17.7 0.00 0.00 0.00 39
20260503233712 10 306 9.7 14.5 0.00 0.00 0.00 39
20260503233212 10 299 8.0 22.5 0.00 0.00 0.00 37
20260503232712 10 309 6.4 11.3 0.00 0.00 0.00 38
20260503232212 10 307 8.0 16.1 0.00 0.00 0.00 38
20260503231712 10 320 9.7 16.1 0.00 0.00 0.00 38
20260503231212 10 306 6.4 14.5 0.00 0.00 0.00 37
20260503230712 10 215 3.2 17.7 0.00 0.00 0.00 37
20260503230212 10 272 8.0 19.3 0.00 0.00 0.00 37
20260503225712 10 302 3.2 20.9 0.00 0.00 0.00 38
20260503225212 10 319 12.9 19.3 0.00 0.00 0.00 36
20260503224712 10 286 9.7 19.3 0.00 0.00 0.00 37
20260503224212 10 257 4.8 16.1 0.00 0.00 0.00 38
20260503223712 10 331 12.9 17.7 0.00 0.00 0.00 38
20260503223212 10 298 11.3 19.3 0.00 0.00 0.00 37
20260503222712 10 299 11.3 20.9 0.00 0.00 0.00 38
20260503222212 10 284 9.7 20.9 0.00 0.00 0.00 37
20260503221712 10 268 6.4 17.7 0.00 0.00 0.00 38
20260503221212 10 288 1.6 19.3 0.00 0.00 0.00 39
20260503220712 10 324 11.3 20.9 0.00 0.00 0.00 38
20260503220212 10 306 4.8 14.5 0.00 0.00 0.00 38
20260503215712 10 300 4.8 20.9 0.00 0.00 0.00 37
20260503215212 10 296 8.0 25.7 0.00 0.00 0.00 37
20260503214712 10 307 8.0 20.9 0.00 0.00 0.00 36
20260503214212 10 272 9.7 12.9 0.00 0.00 0.00 38
20260503213712 10 306 8.0 19.3 0.00 0.00 0.00 38
20260503213212 10 322 8.0 19.3 0.00 0.00 0.00 37
20260503212712 10 319 6.4 16.1 0.00 0.00 0.00 39
20260503212212 10 337 6.4 16.1 0.00 0.00 0.00 39
20260503211712 10 324 6.4 17.7 0.00 0.00 0.00 39
20260503211212 10 255 12.9 20.9 0.00 0.00 0.00 37
20260503210712 10 307 14.5 20.9 0.00 0.00 0.00 38
20260503210212 10 253 4.8 19.3 0.00 0.00 0.00 39
20260503205712 10 303 11.3 22.5 0.00 0.00 0.00 40
20260503205212 10 223 8.0 19.3 0.00 0.00 0.00 39
20260503204712 10 278 14.5 19.3 0.00 0.00 0.00 40
20260503204212 10 274 8.0 20.9 0.00 0.00 0.00 39
20260503203712 10 250 9.7 22.5 0.00 0.00 0.00 39
20260503203212 10 240 12.9 17.7 0.00 0.00 0.00 40
20260503202712 9 272 14.5 19.3 0.00 0.00 0.00 41
20260503202212 9 303 6.4 27.4 0.00 0.00 0.00 38
20260503201712 9 322 16.1 24.1 0.00 0.00 0.00 43
20260503201212 9 296 16.1 19.3 0.00 0.00 0.00 40
20260503200712 9 306 9.7 24.1 0.00 0.00 0.00 43
20260503200212 9 296 9.7 22.5 0.00 0.00 0.00 40
20260503195712 8 271 12.9 24.1 0.00 0.00 0.00 41
20260503195212 8 302 14.5 29.0 0.00 0.00 0.00 40
20260503194712 9 288 11.3 24.1 0.00 0.00 0.00 40
20260503194212 9 313 9.7 29.0 0.00 0.00 0.00 39
20260503193712 9 331 16.1 19.3 0.00 0.00 0.00 43
20260503193212 8 289 1.6 17.7 0.00 0.00 0.00 44
20260503192712 8 265 9.7 19.3 0.00 0.00 0.00 44
20260503192212 8 299 14.5 27.4 0.00 0.00 0.00 42
20260503191712 8 268 8.0 17.7 0.00 0.00 0.00 47
20260503191212 8 324 12.9 14.5 0.00 0.00 0.00 44
20260503190712 8 293 9.7 20.9 0.00 0.00 0.00 43